Wind_Speed
22 22 20 19 20 19 20 22 22 22 21 20 19 18 17 16 14 13 12 11 10 10 11 12 13 12 12 13 12 12 11 11 11 10 11 11 11 11 11 11 11 11 11 11 11 11 11 11 10
22 22 20 20 20 20 22 23 23 22 21 20 20 19 18 16 14 13 11 10 10 10 11 12 12 12 12 12 12 12 11 11 10 10 10 11 11 11 10 11 11 11 11 11 11 11 10 10 10
21 21 20 19 20 22 23 24 24 23 22 21 20 19 17 16 15 13 11 10 10 11 11 11 12 11 11 11 10 10 10 10 10 10 10 10 10 10 10 10 11 10 10 10 10 10 10 10 10
21 20 19 19 20 22 24 24 24 23 22 21 20 19 17 16 15 14 12 10 10 11 11 11 11 11 11 10 10 11 10 10 10 10 10 10 10 11 10 10 10 10 10 10 10 10 10 10 10
20 20 20 20 21 23 24 24 25 24 23 22 21 20 18 17 16 15 13 11 11 11 11 11 11 11 11 10 10 10 10 10 10 10 10 10 10 10 10 10 10 10 10 10 10 10 10 10 9
19 19 20 22 23 23 24 25 25 25 23 22 22 20 18 17 16 15 14 13 12 11 11 11 10 10 10 9 10 10 9 10 10 10 10 11 10 10 9 9 9 9 9 9 9 10 9 9 9
19 18 20 22 23 24 25 25 26 25 23 22 22 21 19 18 17 16 15 14 13 12 11 11 11 10 9 9 9 10 10 10 10 10 10 10 9 9 9 9 9 9 9 9 9 9 9 9 9
18 18 21 23 23 24 25 25 25 24 23 22 22 21 20 18 18 17 16 14 14 13 12 11 11 10 9 9 9 9 9 9 10 10 9 9 8 8 7 7 8 8 8 8 8 8 8 8 8
17 18 20 23 24 24 24 25 24 24 23 22 22 21 20 18 18 18 17 16 15 14 12 12 11 10 10 9 9 9 9 9 9 9 8 8 8 7 7 6 7 7 7 7 7 7 7 7 7
16 17 20 22 23 23 23 23 23 23 23 22 22 21 20 19 18 18 18 17 16 15 13 12 12 11 11 10 9 9 8 8 8 7 7 7 7 7 7 6 6 7 7 7 7 6 7 6 6
15 16 18 21 22 22 22 22 22 22 22 22 22 21 20 19 18 18 18 17 17 16 15 13 13 11 11 11 10 9 8 8 7 7 7 7 7 6 6 5 5 6 6 6 6 6 6 6 5
13 14 16 19 20 21 21 21 21 22 22 22 22 22 20 20 19 18 18 17 17 16 16 14 13 12 11 10 10 9 8 8 8 7 7 6 6 5 5 5 5 5 5 5 5 5 5 5 4
10 12 15 17 19 20 21 21 21 20 21 21 22 22 21 20 20 19 18 17 17 16 15 14 13 12 11 10 8 8 8 8 7 7 6 6 5 5 4 4 3 4 3 4 4 3 3 3 2
8 10 13 15 17 19 20 20 19 19 19 20 21 22 22 21 20 19 19 18 17 17 16 15 14 13 11 10 8 8 8 7 7 6 5 5 4 4 3 3 2 2 2 2 2 2 2 1 1
6 8 10 13 15 17 18 18 18 18 19 19 20 21 21 21 21 20 19 18 18 17 16 15 14 13 11 10 9 8 7 7 6 5 5 4 4 3 2 2 1 1 1 2 2 2 1 1 1
4 5 8 10 13 14 16 17 16 16 16 17 19 19 19 19 20 19 18 17 17 16 16 15 15 13 12 11 10 9 8 7 6 5 4 4 3 3 2 1 0 0 1 1 2 2 2 2 3
4 3 4 7 9 11 12 14 14 14 14 16 17 18 18 18 18 18 18 18 17 16 16 15 14 14 12 11 10 9 8 7 6 5 4 4 3 2 1 1 1 1 1 2 2 3 3 3 4
5 2 1 4 6 8 9 10 11 12 13 15 15 16 17 17 17 17 18 17 17 16 16 16 15 14 12 10 10 9 8 7 6 6 5 4 3 2 1 2 2 2 2 2 3 4 4 5 5
7 5 2 1 2 4 5 7 8 9 11 12 14 14 15 16 16 16 16 16 16 16 16 15 15 14 13 11 10 9 8 7 6 5 5 3 3 2 2 3 2 2 3 3 4 4 5 6 6
11 8 6 3 1 1 2 4 6 8 9 10 11 12 13 14 15 15 16 16 15 15 15 14 13 13 12 11 10 10 9 7 6 5 5 4 3 3 4 4 3 3 4 4 5 5 5 6 7
14 11 9 7 5 2 1 2 4 5 7 8 9 10 11 12 13 13 14 15 14 14 14 14 14 13 12 11 10 10 9 8 7 6 5 5 4 4 5 5 5 5 5 6 6 6 6 7 7
16 14 12 10 9 6 5 3 3 4 6 8 9 10 10 10 11 12 13 14 14 13 13 14 13 12 12 11 10 9 9 8 8 7 6 6 6 5 6 6 7 6 6 7 7 8 9 9 9
19 17 16 14 13 11 8 6 4 4 5 6 8 9 9 9 10 10 11 12 13 14 13 13 12 12 11 12 11 9 9 9 9 8 7 6 6 7 7 7 7 7 7 8 8 9 9 10 10
22 20 19 18 17 14 11 9 7 6 6 6 6 7 8 9 9 9 10 11 12 12 12 12 12 12 12 11 11 10 10 10 10 9 8 8 8 7 7 7 7 8 8 9 10 10 10 11 11
25 23 22 21 20 17 15 13 10 8 7 7 7 7 7 8 9 8 9 10 11 11 12 12 13 13 13 12 12 11 11 11 11 10 9 9 9 9 8 8 9 10 10 10 11 11 11 11 11
26 25 24 23 21 18 17 16 13 10 9 8 8 7 7 7 8 8 9 10 10 11 11 12 12 13 13 13 12 12 11 12 12 11 11 11 11 10 10 10 11 11 11 11 11 12 12 12 12
28 27 25 25 24 21 20 17 15 13 11 9 8 8 8 8 8 8 9 10 11 11 11 12 12 13 13 12 12 12 12 11 11 11 11 12 12 12 11 11 11 12 12 12 13 13 13 13 13
30 28 27 26 25 23 21 19 16 14 12 11 10 9 9 8 9 9 9 10 11 11 11 12 13 13 14 14 12 12 12 11 11 12 12 13 13 13 13 12 12 13 13 13 13 12 12 12 13
31 30 29 27 26 24 21 18 16 15 14 13 12 11 9 10 10 10 10 11 11 12 12 12 13 13 13 14 13 12 12 12 12 13 13 13 13 13 13 13 12 12 13 13 13 12 12 13 14
32 31 30 29 26 24 23 19 17 16 15 14 13 11 10 10 11 11 11 11 12 12 13 13 13 14 13 13 14 14 13 13 13 14 14 14 14 13 13 14 13 13 13 13 13 13 13 13 14
Wind_Direction
64 62 61 61 59 57 59 62 61 58 56 55 55 55 56 56 57 60 62 67 76 82 83 83 85 85 85 86 86 85 85 84 86 89 88 91 102 106 105 103 99 98 99 98 98 99 100 100 99
65 62 59 59 60 58 60 61 59 57 54 53 54 55 55 56 56 59 63 68 77 82 84 84 85 86 88 88 88 87 87 86 88 88 90 90 94 101 101 99 99 100 99 99 98 97 97 98 97
64 60 58 59 60 60 60 60 58 55 53 52 53 54 53 54 54 57 62 69 76 83 86 87 85 84 86 87 85 86 87 90 92 92 95 95 97 98 98 97 98 101 99 100 101 99 98 97 96
64 62 59 59 60 61 61 60 59 55 51 51 52 52 53 52 52 58 64 69 74 83 87 87 85 83 85 86 85 87 87 86 90 96 98 100 100 101 100 101 101 104 104 104 103 100 98 97 96
64 63 60 59 60 61 61 61 59 55 51 51 52 52 53 52 53 58 63 67 71 78 84 86 85 84 88 88 90 89 90 93 94 97 100 102 103 104 103 101 101 105 105 105 105 100 98 96 96
65 64 62 60 60 60 60 58 57 54 52 52 53 53 52 52 54 57 61 66 70 75 79 82 84 87 91 93 92 93 95 98 99 97 99 98 101 103 102 102 103 106 107 106 104 101 98 95 94
68 63 63 61 60 60 59 58 56 53 51 52 54 53 52 53 53 55 58 65 68 70 73 76 83 86 91 97 97 96 98 99 100 101 100 99 98 102 103 104 106 108 107 103 103 102 100 96 94
68 63 63 62 59 58 58 57 55 53 50 50 51 51 51 51 53 55 57 63 65 69 72 74 78 80 87 94 97 97 99 100 101 101 103 103 102 101 103 103 105 107 105 102 104 104 102 97 94
68 63 63 63 59 58 58 57 55 53 51 50 50 50 50 50 52 54 56 59 63 65 69 74 75 78 84 93 97 98 102 102 104 104 104 106 105 102 101 103 106 107 108 109 109 108 107 101 97
70 66 63 63 61 58 58 57 55 53 51 50 50 49 49 49 51 54 56 58 61 62 65 73 75 78 83 89 96 102 105 104 102 104 103 105 105 104 102 101 103 108 113 113 110 110 108 102 98
72 68 67 66 62 59 58 57 55 53 52 50 49 49 49 49 50 53 55 56 58 61 64 69 73 77 83 88 94 99 103 103 98 99 100 101 102 101 99 99 106 113 116 115 112 111 109 107 103
71 71 71 68 63 60 57 55 55 53 52 49 48 47 47 49 50 52 54 54 57 60 63 67 71 73 78 87 93 96 99 101 99 99 97 100 103 104 100 100 107 113 114 116 114 113 112 111 110
73 70 70 70 66 60 55 55 53 51 51 49 48 47 46 47 49 52 52 53 55 59 62 63 65 69 70 78 88 95 99 100 103 100 99 101 102 99 94 96 110 122 126 129 131 126 121 117 111
72 71 70 69 66 60 54 52 51 49 50 48 48 48 47 47 48 51 51 55 58 59 60 62 65 66 66 70 80 87 95 98 103 104 102 99 95 87 82 86 104 136 150 159 152 149 149 141 96
89 75 70 68 67 60 55 53 48 46 48 48 46 47 47 47 48 50 51 54 56 57 57 60 62 62 63 63 69 73 80 88 91 95 99 99 88 83 78 89 115 173 205 198 205 211 223 237 255
123 87 72 71 69 63 59 54 49 44 44 45 45 45 46 47 48 49 51 52 53 55 56 56 58 60 61 62 63 64 69 75 81 82 87 90 84 77 71 76 89 223 241 234 230 238 246 264 275
173 120 78 70 68 63 59 54 50 43 41 41 42 43 43 44 47 48 49 49 51 53 54 52 52 53 56 57 56 57 60 65 70 70 74 74 71 74 57 34 332 281 242 245 256 257 262 277 286
199 181 92 64 68 67 62 54 47 44 37 38 39 42 43 43 44 46 47 47 48 50 49 48 47 47 48 50 51 53 51 54 56 59 61 60 53 49 20 335 313 299 280 268 262 265 266 281 288
211 217 217 129 79 66 59 51 45 41 36 35 36 38 41 42 43 42 42 43 44 44 44 45 46 46 46 46 46 44 44 45 47 44 35 28 20 9 349 337 320 304 292 281 280 279 275 279 282
217 221 222 228 237 49 45 37 39 34 36 31 29 31 34 40 39 37 35 36 38 40 39 40 41 41 41 40 40 37 35 33 33 30 16 2 354 339 328 324 321 300 290 285 287 288 283 283 283
221 222 225 240 248 256 314 0 15 27 32 28 25 24 27 34 34 33 31 30 30 32 33 33 31 32 32 32 31 28 25 19 13 10 357 343 331 320 317 313 307 293 286 285 286 287 288 287 286
223 223 226 236 249 252 269 290 331 357 12 21 20 17 22 29 31 29 26 26 27 28 27 29 28 28 26 24 22 17 11 7 2 357 349 338 326 316 310 308 305 294 282 284 287 287 288 292 287
226 227 231 238 247 248 256 271 292 315 345 2 8 10 14 22 25 26 23 23 23 24 23 24 22 18 14 16 16 12 6 2 356 352 346 335 322 312 308 306 305 304 293 288 288 289 290 291 290
227 230 234 238 243 243 250 260 273 294 315 334 347 352 1 10 15 17 16 14 14 17 18 17 16 13 8 10 8 4 360 357 356 351 341 329 322 314 308 304 304 304 299 295 292 289 290 291 290
228 231 234 238 240 242 248 257 267 280 292 310 324 334 348 356 3 6 5 4 5 10 12 12 12 9 4 2 1 359 352 349 349 345 336 327 321 315 311 306 303 302 299 297 298 295 294 293 293
230 234 237 240 242 245 248 254 264 271 281 295 310 319 332 344 352 358 356 353 356 1 3 4 5 6 3 359 356 353 347 340 341 339 333 329 321 312 305 301 299 300 297 296 297 296 294 293 293
230 233 238 241 245 246 249 252 258 261 270 284 300 307 318 331 338 342 345 346 347 348 351 353 354 356 356 354 353 348 344 338 337 336 331 330 324 316 306 299 298 298 295 294 293 293 291 290 291
228 232 235 239 244 246 250 252 255 257 265 279 291 298 305 315 324 329 332 336 337 339 340 342 345 346 346 347 344 342 339 337 333 332 329 328 323 315 308 301 299 300 298 296 294 294 293 291 291
228 229 233 239 243 247 251 250 253 258 263 272 283 290 295 303 311 315 321 324 326 327 330 332 336 337 337 341 340 338 337 337 333 331 328 324 320 315 309 304 302 301 300 296 295 295 295 292 292
229 231 235 238 243 248 251 249 250 255 261 268 277 282 288 297 303 308 310 313 315 317 319 322 325 328 333 335 338 339 336 336 333 329 327 325 320 316 311 306 302 302 304 301 297 295 296 295 294
Height
5897 5895 5894 5893 5892 5890 5887 5886 5884 5883 5882 5881 5880 5878 5877 5877 5877 5879 5876 5874 5875 5874 5874 5874 5874 5873 5874 5874 5875 5875 5875 5876 5876 5877 5877 5877 5878 5878 5878 5879 5880 5881 5881 5882 5883 5884 5884 5884 5885
5900 5899 5898 5896 5893 5891 5890 5887 5886 5885 5884 5883 5881 5880 5879 5878 5878 5877 5876 5876 5876 5876 5876 5875 5875 5875 5876 5876 5877 5877 5877 5877 5878 5878 5879 5879 5880 5880 5881 5881 5882 5883 5883 5884 5885 5886 5886 5886 5886
5903 5902 5901 5898 5896 5894 5892 5890 5888 5888 5886 5885 5884 5882 5882 5881 5879 5878 5877 5878 5878 5877 5877 5877 5876 5877 5877 5878 5878 5878 5879 5879 5880 5880 5881 5881 5882 5882 5883 5883 5884 5885 5886 5886 5887 5887 5888 5888 5888
5907 5906 5904 5902 5899 5897 5894 5892 5891 5890 5889 5887 5886 5885 5884 5883 5881 5880 5879 5879 5879 5879 5878 5878 5878 5878 5879 5879 5879 5880 5880 5881 5881 5882 5883 5883 5884 5884 5885 5886 5886 5887 5888 5888 5889 5889 5890 5890 5890
5910 5908 5906 5904 5902 5899 5897 5895 5894 5893 5891 5890 5889 5888 5886 5885 5884 5882 5882 5881 5881 5880 5880 5879 5879 5880 5880 5880 5881 5881 5882 5882 5883 5884 5884 5885 5886 5886 5887 5887 5888 5889 5890 5890 5890 5891 5891 5891 5892
5913 5911 5909 5906 5904 5902 5900 5898 5897 5896 5894 5893 5892 5891 5889 5888 5886 5885 5884 5883 5883 5882 5882 5881 5881 5881 5881 5882 5882 5883 5883 5884 5885 5885 5886 5887 5887 5888 5889 5889 5890 5891 5891 5892 5892 5893 5893 5893 5893
5916 5915 5912 5909 5907 5905 5903 5901 5900 5899 5898 5897 5895 5894 5892 5891 5889 5887 5886 5886 5885 5884 5883 5883 5883 5883 5883 5883 5884 5884 5885 5886 5886 5887 5887 5888 5889 5889 5890 5891 5891 5892 5893 5893 5894 5894 5894 5894 5895
5918 5918 5914 5912 5910 5908 5907 5905 5904 5903 5901 5900 5898 5897 5895 5894 5892 5890 5889 5888 5887 5886 5885 5885 5885 5885 5885 5885 5885 5886 5886 5887 5888 5888 5889 5889 5890 5891 5891 5892 5893 5894 5894 5895 5895 5896 5896 5896 5896
5920 5920 5917 5915 5913 5912 5910 5909 5908 5906 5905 5903 5901 5900 5898 5897 5895 5893 5891 5890 5889 5888 5887 5887 5887 5887 5886 5886 5887 5887 5888 5889 5889 5890 5890 5891 5891 5892 5893 5894 5894 5895 5896 5896 5897 5897 5897 5897 5898
5922 5922 5920 5918 5917 5916 5914 5912 5911 5910 5908 5906 5904 5903 5901 5900 5898 5895 5894 5892 5891 5890 5890 5889 5889 5889 5888 5888 5889 5889 5890 5891 5891 5891 5892 5892 5893 5893 5894 5895 5895 5896 5897 5897 5897 5898 5898 5898 5899
5924 5924 5922 5921 5920 5919 5917 5916 5915 5913 5912 5910 5908 5906 5904 5902 5901 5898 5896 5895 5894 5893 5892 5891 5891 5891 5891 5891 5891 5891 5892 5892 5893 5893 5893 5894 5894 5895 5895 5896 5896 5897 5897 5898 5898 5899 5899 5900 5900
5927 5926 5925 5924 5923 5922 5921 5920 5918 5917 5916 5914 5911 5909 5907 5905 5903 5901 5899 5898 5896 5895 5895 5894 5893 5893 5893 5893 5893 5893 5893 5893 5894 5895 5895 5895 5895 5896 5896 5897 5897 5898 5898 5899 5899 5900 5900 5900 5901
5928 5928 5927 5926 5925 5925 5924 5923 5921 5920 5919 5917 5915 5912 5910 5908 5906 5904 5902 5901 5899 5898 5898 5897 5896 5895 5895 5894 5894 5894 5895 5895 5895 5896 5896 5896 5896 5897 5897 5898 5898 5898 5899 5899 5900 5900 5901 5901 5901
5930 5929 5929 5928 5927 5927 5926 5926 5925 5923 5922 5920 5918 5916 5914 5911 5909 5907 5906 5904 5903 5901 5900 5899 5898 5898 5897 5897 5896 5896 5896 5896 5897 5897 5897 5897 5897 5898 5898 5898 5899 5899 5899 5900 5900 5900 5901 5901 5901
5930 5931 5931 5930 5929 5929 5929 5928 5927 5926 5925 5923 5921 5919 5917 5915 5912 5910 5908 5907 5906 5904 5903 5902 5901 5900 5900 5899 5898 5898 5898 5898 5898 5898 5898 5898 5898 5898 5899 5899 5899 5899 5899 5900 5900 5901 5901 5901 5901
5931 5932 5932 5932 5931 5931 5932 5931 5931 5929 5928 5926 5924 5922 5920 5918 5916 5913 5912 5910 5908 5907 5906 5905 5904 5903 5902 5901 5901 5900 5900 5899 5900 5899 5899 5899 5899 5899 5899 5899 5899 5899 5899 5900 5900 5900 5901 5901 5901
5931 5932 5933 5933 5933 5933 5933 5933 5933 5932 5930 5928 5926 5924 5923 5921 5919 5917 5915 5913 5912 5910 5909 5907 5906 5905 5904 5903 5903 5902 5901 5901 5901 5901 5900 5900 5900 5900 5899 5899 5899 5899 5900 5900 5900 5900 5900 5900 5900
5931 5932 5933 5934 5934 5934 5934 5934 5934 5933 5932 5930 5929 5927 5925 5923 5921 5920 5918 5916 5915 5913 5912 5910 5909 5907 5907 5906 5905 5904 5903 5903 5902 5902 5901 5901 5900 5900 5900 5899 5899 5899 5899 5899 5899 5899 5899 5899 5899
5931 5932 5933 5934 5935 5935 5935 5935 5935 5935 5934 5932 5931 5929 5927 5925 5923 5922 5920 5919 5917 5915 5914 5912 5911 5910 5909 5908 5907 5906 5905 5904 5903 5903 5902 5902 5901 5900 5900 5899 5899 5899 5899 5899 5899 5898 5898 5898 5898
5930 5931 5933 5934 5935 5935 5935 5936 5936 5936 5935 5934 5932 5930 5929 5927 5926 5924 5922 5921 5919 5917 5916 5914 5913 5911 5910 5909 5908 5908 5906 5905 5904 5903 5903 5902 5901 5901 5900 5899 5899 5898 5898 5898 5898 5898 5897 5897 5897
5928 5931 5932 5933 5934 5935 5936 5936 5937 5936 5936 5935 5933 5932 5930 5929 5927 5925 5924 5922 5920 5919 5917 5916 5914 5913 5912 5910 5909 5908 5907 5906 5905 5904 5903 5902 5901 5900 5900 5899 5899 5898 5898 5897 5897 5897 5896 5896 5895
5927 5929 5931 5932 5933 5934 5936 5936 5937 5936 5936 5935 5934 5933 5932 5930 5928 5927 5925 5923 5922 5920 5918 5917 5916 5914 5913 5911 5910 5909 5908 5906 5905 5904 5902 5901 5900 5900 5899 5898 5898 5897 5897 5896 5896 5895 5895 5894 5893
5925 5927 5929 5930 5932 5933 5934 5935 5937 5936 5936 5935 5935 5934 5932 5931 5929 5928 5926 5925 5923 5921 5920 5918 5917 5915 5914 5912 5910 5909 5908 5906 5905 5903 5902 5901 5900 5899 5898 5897 5896 5896 5895 5895 5894 5894 5893 5892 5891
5922 5925 5926 5928 5929 5931 5933 5934 5935 5935 5936 5935 5935 5934 5933 5931 5930 5928 5927 5925 5924 5922 5920 5919 5917 5915 5914 5912 5910 5909 5908 5906 5905 5903 5902 5900 5899 5898 5897 5896 5895 5895 5894 5893 5892 5892 5891 5890 5889
5919 5922 5924 5925 5926 5929 5931 5932 5934 5934 5934 5934 5934 5933 5932 5931 5930 5928 5927 5926 5924 5922 5921 5919 5917 5915 5913 5911 5909 5908 5907 5906 5904 5902 5901 5899 5898 5897 5896 5895 5894 5893 5892 5891 5890 5889 5888 5888 5887
5915 5918 5921 5923 5924 5927 5928 5929 5932 5933 5933 5933 5933 5932 5931 5930 5929 5928 5927 5926 5924 5923 5921 5919 5917 5916 5913 5911 5909 5907 5906 5905 5903 5902 5900 5898 5897 5895 5894 5893 5892 5891 5890 5889 5888 5887 5886 5885 5884
5911 5914 5917 5920 5921 5924 5925 5927 5929 5930 5931 5931 5931 5931 5930 5930 5929 5927 5926 5925 5924 5922 5921 5919 5917 5915 5913 5911 5909 5907 5905 5904 5902 5900 5899 5897 5895 5894 5892 5891 5890 5889 5887 5886 5885 5884 5883 5882 5881
5907 5911 5913 5915 5917 5919 5922 5924 5926 5928 5929 5929 5929 5929 5929 5928 5928 5927 5925 5924 5923 5922 5920 5918 5917 5915 5913 5911 5908 5906 5904 5902 5901 5899 5898 5896 5893 5892 5890 5888 5887 5886 5884 5884 5883 5882 5881 5880 5879
5903 5906 5908 5911 5914 5916 5918 5923 5924 5925 5926 5927 5927 5927 5927 5927 5926 5925 5924 5923 5922 5920 5919 5917 5915 5914 5911 5909 5907 5905 5903 5901 5899 5898 5896 5894 5891 5889 5887 5886 5885 5883 5882 5881 5880 5879 5878 5877 5876
5898 5901 5904 5908 5910 5912 5915 5921 5921 5922 5923 5924 5924 5925 5925 5924 5924 5923 5923 5922 5920 5919 5917 5916 5914 5912 5909 5908 5906 5904 5902 5900 5898 5896 5894 5892 5889 5887 5885 5884 5882 5881 5880 5878 5877 5876 5875 5874 5873